Terug naar catalogus

GLOBALSTAR M029

ActiefCommunicatieLEO
NORAD 25963·PAYLOAD·🇺🇸 United States

Gelanceerd Nov 22, 1999 vanaf Baikonur Cosmodrome

Loading…

Volgende Passages (komende 24 uur)

TLE

VersSource: Space-Track

Epoch: Sep 14, 2026, 20:57 UTC

1 25963U 99062C   26257.87325637 -.00000060  00000-0  33053-3 0  9998
2 25963  51.9814 304.7249 0002282 285.0742 256.5524 11.99913540223701

Volg GLOBALSTAR M029 in realtime met AllMySat

Download on the App Store